Powrót do katalogu

TITAN 4B DEB

AktywnyLEO
NORAD 40528·DEBRIS·🇺🇸 United States

Wystrzelony Aug 17, 2000 z Vandenberg Space Force Base

Loading…

Następne Przeloty (najbliższe 24 godziny)

TLE

ŚwieżeSource: Space-Track

Epoka: Sep 14, 2026, 04:48 UTC

1 40528U 00047E   26257.20058112  .00000328  00000-0  39099-4 0  9998
2 40528  67.9956 333.5007 0060576 233.1718 155.5362 14.96040917625947

Śledź TITAN 4B DEB w czasie rzeczywistym z AllMySat

Download on the App Store